RYR83KK LEAM-EBCI

Flight info

Callsign RYR83KK
Flight time N/A
Altitude 34000
Route ESILA N865 VTB DCT RBO DCT OSTIX DCT GASMO DCT DGO N858 ABRIX DCT CNA DCT ADABI DCT BOKNO UN858 VANAD UN874 BAMES UT191 PODEM UN873 BAZOS DCT BELDI DCT VEKIN Z173 ARVOL
Aircraft B38M/M-SDE1FGHILORVWXY/HB1

Departure

Time 2026-04-23 10:30
Airport Almería Airport (LEAM)

Arrival

Time N/A
Airport Brussels South Charleroi Airport (EBCI)
Time Latitude Longitude Altitude Speed Heading
2026-04-23 09:56 36.84674 -2.37172 48 ft 0 kts 135°
2026-04-23 10:18 36.84671 -2.37169 58 ft 3 kts 139°
2026-04-23 10:19 36.84647 -2.37158 58 ft 4 kts 166°
2026-04-23 10:19 36.84625 -2.37148 58 ft 4 kts 145°
2026-04-23 10:19 36.84618 -2.37121 53 ft 4 kts 91°
2026-04-23 10:19 36.84625 -2.37085 54 ft 1 kts 342°
2026-04-23 10:20 36.84628 -2.37071 59 ft 0 kts 253°
2026-04-23 10:24 36.84624 -2.37086 53 ft 4 kts 253°
2026-04-23 10:24 36.84613 -2.37136 51 ft 8 kts 253°
2026-04-23 10:24 36.84593 -2.37214 51 ft 10 kts 252°
2026-04-23 10:25 36.84568 -2.37311 51 ft 13 kts 252°
2026-04-23 10:25 36.84523 -2.37381 52 ft 7 kts 179°
2026-04-23 10:25 36.84493 -2.37386 53 ft 1 kts 219°
2026-04-23 10:25 36.84479 -2.37405 49 ft 5 kts 227°
2026-04-23 10:26 36.84457 -2.37463 54 ft 10 kts 251°
2026-04-23 10:26 36.84430 -2.37568 49 ft 15 kts 252°
2026-04-23 10:26 36.84398 -2.37702 49 ft 18 kts 252°
2026-04-23 10:26 36.84358 -2.37863 48 ft 21 kts 253°
2026-04-23 10:27 36.84312 -2.38051 46 ft 24 kts 253°
2026-04-23 10:27 36.84260 -2.38265 43 ft 27 kts 253°
2026-04-23 10:27 36.84201 -2.38504 40 ft 30 kts 253°
2026-04-23 10:27 36.84154 -2.38700 37 ft 17 kts 253°
2026-04-23 10:28 36.84070 -2.38785 36 ft 17 kts 168°
2026-04-23 10:28 36.84007 -2.38684 37 ft 15 kts 100°
2026-04-23 10:28 36.84006 -2.38592 37 ft 0 kts 73°
2026-04-23 10:29 36.84024 -2.38516 37 ft 28 kts 73°
2026-04-23 10:29 36.84152 -2.37993 45 ft 96 kts 73°
2026-04-23 10:29 36.84403 -2.36961 65 ft 149 kts 73°
2026-04-23 10:29 36.84713 -2.35607 454 ft 172 kts 77°
2026-04-23 10:30 36.85030 -2.34169 1297 ft 173 kts 74°
2026-04-23 10:30 36.85416 -2.32705 1998 ft 185 kts 73°
2026-04-23 10:30 36.85827 -2.31117 2559 ft 200 kts 73°
2026-04-23 10:30 36.86289 -2.29406 3121 ft 215 kts 71°
2026-04-23 10:31 36.86800 -2.27607 3819 ft 226 kts 72°
2026-04-23 10:31 36.87310 -2.25675 4487 ft 239 kts 73°
2026-04-23 10:31 36.87815 -2.23653 5200 ft 249 kts 75°
2026-04-23 10:31 36.88099 -2.21487 5866 ft 258 kts 95°
2026-04-23 10:32 36.87581 -2.19360 6657 ft 257 kts 127°
2026-04-23 10:32 36.86208 -2.18060 7576 ft 248 kts 161°
2026-04-23 10:32 36.84488 -2.17628 8091 ft 260 kts 179°
2026-04-23 10:32 36.82693 -2.17909 8829 ft 257 kts 193°
2026-04-23 10:33 36.80947 -2.18346 9688 ft 258 kts 191°
2026-04-23 10:33 36.79172 -2.18771 9847 ft 260 kts 194°
2026-04-23 10:33 36.77398 -2.19328 9681 ft 271 kts 197°
2026-04-23 10:33 36.75637 -2.20125 10311 ft 267 kts 211°
2026-04-23 10:34 36.74336 -2.21789 11017 ft 279 kts 243°
2026-04-23 10:34 36.73861 -2.24086 12023 ft 270 kts 256°
2026-04-23 10:34 36.73368 -2.26329 12907 ft 270 kts 252°
2026-04-23 10:34 36.72822 -2.28586 13640 ft 274 kts 252°
2026-04-23 10:35 36.72261 -2.30876 14412 ft 277 kts 252°
2026-04-23 10:35 36.72007 -2.33261 15154 ft 282 kts 275°
2026-04-23 10:35 36.72605 -2.35597 15878 ft 289 kts 299°
2026-04-23 10:35 36.73416 -2.36928 16323 ft 293 kts 312°
2026-04-23 10:36 36.74852 -2.38749 17031 ft 297 kts 312°
2026-04-23 10:36 36.76292 -2.40612 17715 ft 300 kts 313°
2026-04-23 10:36 36.77751 -2.42480 18398 ft 302 kts 313°
2026-04-23 10:36 36.79713 -2.44980 19250 ft 306 kts 313°
2026-04-23 10:37 36.81209 -2.46882 19882 ft 309 kts 313°
2026-04-23 10:37 36.82719 -2.48801 20483 ft 311 kts 313°
2026-04-23 10:37 36.83748 -2.50110 20897 ft 313 kts 313°
2026-04-23 10:37 36.85277 -2.52055 21469 ft 315 kts 313°
2026-04-23 10:38 36.86820 -2.54017 22033 ft 318 kts 313°
2026-04-23 10:38 36.88373 -2.55993 22563 ft 320 kts 313°
2026-04-23 10:38 36.89940 -2.57987 23085 ft 323 kts 313°
2026-04-23 10:38 36.91495 -2.59970 23596 ft 325 kts 313°
2026-04-23 10:39 36.93081 -2.61991 24097 ft 327 kts 313°
2026-04-23 10:39 36.94682 -2.64034 24556 ft 330 kts 313°
2026-04-23 10:39 36.96295 -2.66094 25024 ft 332 kts 312°
2026-04-23 10:39 36.97915 -2.68165 25481 ft 334 kts 312°
2026-04-23 10:40 36.99547 -2.70251 25917 ft 337 kts 312°
2026-04-23 10:40 37.01189 -2.72352 26342 ft 338 kts 312°
2026-04-23 10:40 37.02853 -2.74481 26563 ft 348 kts 312°
2026-04-23 10:40 37.04550 -2.76700 26762 ft 354 kts 307°
2026-04-23 10:41 37.05818 -2.79299 27267 ft 349 kts 294°
2026-04-23 10:41 37.06911 -2.82006 27696 ft 349 kts 296°
2026-04-23 10:41 37.08027 -2.84731 27942 ft 356 kts 295°
2026-04-23 10:41 37.09163 -2.87546 27946 ft 369 kts 295°
2026-04-23 10:42 37.10333 -2.90475 27972 ft 382 kts 295°
2026-04-23 10:42 37.11539 -2.93507 27992 ft 394 kts 295°
2026-04-23 10:42 37.12780 -2.96635 28025 ft 406 kts 295°
2026-04-23 10:42 37.14051 -2.99844 28169 ft 414 kts 295°
2026-04-23 10:43 37.15328 -3.03073 28636 ft 414 kts 295°
2026-04-23 10:43 37.16615 -3.06327 28957 ft 418 kts 295°
2026-04-23 10:43 37.17906 -3.09597 29327 ft 420 kts 295°
2026-04-23 10:43 37.19202 -3.12884 29669 ft 422 kts 295°
2026-04-23 10:44 37.20503 -3.16186 30030 ft 424 kts 295°
2026-04-23 10:44 37.21812 -3.19512 30335 ft 426 kts 295°
2026-04-23 10:44 37.23127 -3.22858 30669 ft 428 kts 295°
2026-04-23 10:44 37.24441 -3.26202 31019 ft 429 kts 295°
2026-04-23 10:45 37.25789 -3.29560 31332 ft 431 kts 295°
2026-04-23 10:45 37.27150 -3.32934 31647 ft 433 kts 295°
2026-04-23 10:45 37.28502 -3.36295 32049 ft 432 kts 295°
2026-04-23 10:45 37.29853 -3.39659 32457 ft 430 kts 295°
2026-04-23 10:46 37.31193 -3.43003 32864 ft 429 kts 295°
2026-04-23 10:46 37.32536 -3.46354 33262 ft 428 kts 295°
2026-04-23 10:46 37.33870 -3.49688 33653 ft 427 kts 295°
2026-04-23 10:46 37.35201 -3.53018 33980 ft 427 kts 295°
2026-04-23 10:47 37.38448 -3.59196 34030 ft 428 kts 316°
2026-04-23 10:47 37.40922 -3.61306 34050 ft 433 kts 332°
2026-04-23 10:47 37.43801 -3.62524 34030 ft 440 kts 347°
2026-04-23 10:48 37.49915 -3.62909 34031 ft 446 kts 356°
2026-04-23 10:48 37.56127 -3.62937 34030 ft 446 kts 357°
2026-04-23 10:49 37.62338 -3.62905 34029 ft 447 kts 358°
2026-04-23 10:49 37.68547 -3.62859 34048 ft 447 kts 358°
2026-04-23 10:50 37.74761 -3.62808 34037 ft 446 kts 358°
2026-04-23 10:50 37.80979 -3.62757 34037 ft 447 kts 358°
2026-04-23 10:51 37.87201 -3.62706 34039 ft 447 kts 358°
2026-04-23 10:51 37.93415 -3.62654 34044 ft 447 kts 358°
2026-04-23 10:52 37.99641 -3.62602 34046 ft 447 kts 358°
2026-04-23 10:52 38.05861 -3.62550 34046 ft 446 kts 358°
2026-04-23 10:53 38.12081 -3.62499 34057 ft 447 kts 358°
2026-04-23 10:53 38.18293 -3.62090 34060 ft 448 kts
2026-04-23 10:54 38.24506 -3.61461 34056 ft 448 kts
2026-04-23 10:54 38.30674 -3.60871 34055 ft 447 kts
2026-04-23 10:55 38.36882 -3.60281 34056 ft 447 kts
2026-04-23 10:55 38.43090 -3.59688 34047 ft 446 kts
2026-04-23 10:56 38.49282 -3.59098 34060 ft 447 kts
2026-04-23 10:56 38.55471 -3.58507 34067 ft 446 kts
2026-04-23 10:57 38.61662 -3.57914 34066 ft 446 kts
2026-04-23 10:57 38.67856 -3.57319 34064 ft 446 kts
2026-04-23 10:58 38.74039 -3.56725 34073 ft 446 kts
2026-04-23 10:58 38.80223 -3.56130 34057 ft 445 kts
2026-04-23 10:59 38.86403 -3.55534 34061 ft 445 kts
2026-04-23 10:59 38.92581 -3.54938 34063 ft 445 kts
2026-04-23 11:00 38.98756 -3.54340 34065 ft 445 kts
2026-04-23 11:00 39.04942 -3.53726 34088 ft 445 kts
2026-04-23 11:01 39.11127 -3.53111 34090 ft 445 kts
2026-04-23 11:01 39.17298 -3.52496 34093 ft 445 kts
2026-04-23 11:02 39.23481 -3.51880 34099 ft 445 kts
2026-04-23 11:02 39.29629 -3.51265 34103 ft 446 kts
2026-04-23 11:03 39.35812 -3.50646 34092 ft 445 kts
2026-04-23 11:03 39.41991 -3.50027 34101 ft 446 kts
2026-04-23 11:04 39.48180 -3.49405 34100 ft 446 kts
2026-04-23 11:04 39.54374 -3.48782 34101 ft 446 kts
2026-04-23 11:05 39.60568 -3.48161 34102 ft 447 kts
2026-04-23 11:05 39.66765 -3.47540 34100 ft 447 kts
2026-04-23 11:06 39.76069 -3.46604 34103 ft 447 kts
2026-04-23 11:07 39.82239 -3.45452 34103 ft 449 kts
2026-04-23 11:07 39.88414 -3.44199 34099 ft 448 kts
2026-04-23 11:08 39.94584 -3.42971 34087 ft 449 kts
2026-04-23 11:08 40.00754 -3.41743 34083 ft 448 kts
2026-04-23 11:09 40.06930 -3.40511 34087 ft 448 kts
2026-04-23 11:09 40.13099 -3.39278 34082 ft 448 kts
2026-04-23 11:10 40.19147 -3.38068 34087 ft 448 kts
2026-04-23 11:10 40.25381 -3.36818 34077 ft 447 kts
2026-04-23 11:11 40.31530 -3.35583 34079 ft 447 kts
2026-04-23 11:11 40.37677 -3.34346 34076 ft 447 kts
2026-04-23 11:12 40.43817 -3.33108 34070 ft 446 kts
2026-04-23 11:12 40.49952 -3.31869 34074 ft 446 kts
2026-04-23 11:13 40.56083 -3.30628 34082 ft 446 kts
2026-04-23 11:13 40.62211 -3.29386 34083 ft 445 kts
2026-04-23 11:14 40.68330 -3.28143 34092 ft 445 kts
2026-04-23 11:14 40.74444 -3.26899 34083 ft 445 kts
2026-04-23 11:15 40.80559 -3.25652 34084 ft 444 kts
2026-04-23 11:15 40.86659 -3.24363 34078 ft 444 kts
2026-04-23 11:16 40.92753 -3.22995 34082 ft 444 kts
2026-04-23 11:16 40.98843 -3.21634 34091 ft 443 kts
2026-04-23 11:17 41.04923 -3.20272 34100 ft 443 kts
2026-04-23 11:17 41.10970 -3.18916 34091 ft 443 kts
2026-04-23 11:18 41.17048 -3.17551 34104 ft 443 kts
2026-04-23 11:18 41.23127 -3.16183 34123 ft 443 kts
2026-04-23 11:19 41.29203 -3.14812 34138 ft 443 kts
2026-04-23 11:19 41.35275 -3.13440 34142 ft 442 kts
2026-04-23 11:20 41.41344 -3.12066 34135 ft 442 kts
2026-04-23 11:20 41.47404 -3.10692 34131 ft 442 kts
2026-04-23 11:21 41.53472 -3.09316 34127 ft 442 kts
2026-04-23 11:21 41.58500 -3.08175 34128 ft 442 kts
2026-04-23 11:22 41.64561 -3.06798 34126 ft 441 kts
2026-04-23 11:22 41.70613 -3.05421 34129 ft 441 kts
2026-04-23 11:23 41.76664 -3.04032 34134 ft 441 kts
2026-04-23 11:23 41.82717 -3.02639 34129 ft 441 kts
2026-04-23 11:24 41.86520 -3.01762 34127 ft 440 kts
2026-04-23 11:24 41.92557 -3.00369 34118 ft 440 kts
2026-04-23 11:25 41.98593 -2.98972 34120 ft 440 kts
2026-04-23 11:25 42.04628 -2.97574 34121 ft 439 kts
2026-04-23 11:26 42.10635 -2.96179 34121 ft 438 kts
2026-04-23 11:26 42.16639 -2.94782 34112 ft 438 kts
2026-04-23 11:27 42.22599 -2.93393 34121 ft 437 kts
2026-04-23 11:27 42.28597 -2.91992 34113 ft 437 kts
2026-04-23 11:28 42.32528 -2.91072 34121 ft 437 kts
2026-04-23 11:28 42.38526 -2.89667 34122 ft 437 kts
2026-04-23 11:29 42.44500 -2.88165 34101 ft 439 kts 14°
2026-04-23 11:29 42.47302 -2.86465 34120 ft 444 kts 26°
2026-04-23 11:29 42.50013 -2.84458 34115 ft 445 kts 25°
2026-04-23 11:30 42.55457 -2.80425 34120 ft 445 kts 25°
2026-04-23 11:30 42.60863 -2.76346 34120 ft 445 kts 25°
2026-04-23 11:31 42.66267 -2.72253 34126 ft 445 kts 25°
2026-04-23 11:31 42.71665 -2.68156 34122 ft 444 kts 26°
2026-04-23 11:32 42.77052 -2.64057 34129 ft 444 kts 25°
2026-04-23 11:32 42.82436 -2.59954 34127 ft 443 kts 25°
2026-04-23 11:33 42.87810 -2.55850 34127 ft 443 kts 26°
2026-04-23 11:33 42.93189 -2.51733 34120 ft 443 kts 26°
2026-04-23 11:34 42.98560 -2.47615 34120 ft 443 kts 26°
2026-04-23 11:34 43.03923 -2.43493 34097 ft 442 kts 25°
2026-04-23 11:35 43.09288 -2.39363 34103 ft 442 kts 26°
2026-04-23 11:35 43.14636 -2.35237 34097 ft 441 kts 26°
2026-04-23 11:36 43.19987 -2.31100 34082 ft 441 kts 26°
2026-04-23 11:36 43.25323 -2.26967 34080 ft 440 kts 26°
2026-04-23 11:37 43.30627 -2.22850 34076 ft 440 kts 26°
2026-04-23 11:37 43.35952 -2.18708 34069 ft 440 kts 26°
2026-04-23 11:38 43.41270 -2.14564 34060 ft 439 kts 26°
2026-04-23 11:38 43.46580 -2.10417 34051 ft 439 kts 26°
2026-04-23 11:39 43.51892 -2.06260 34049 ft 438 kts 26°
2026-04-23 11:39 43.57190 -2.02107 34045 ft 438 kts 26°
2026-04-23 11:40 43.62484 -1.97949 34050 ft 437 kts 26°
2026-04-23 11:40 43.67762 -1.93789 34048 ft 436 kts 26°
2026-04-23 11:41 43.73044 -1.89619 34053 ft 436 kts 26°
2026-04-23 11:41 43.78314 -1.85450 34054 ft 436 kts 26°
2026-04-23 11:42 43.83558 -1.81293 34054 ft 436 kts 26°
2026-04-23 11:42 43.88824 -1.77112 34068 ft 436 kts 26°
2026-04-23 11:43 43.94087 -1.72923 34075 ft 436 kts 26°
2026-04-23 11:43 43.99352 -1.68724 34073 ft 436 kts 26°
2026-04-23 11:44 44.04612 -1.64520 34084 ft 436 kts 26°
2026-04-23 11:44 44.09874 -1.60306 34085 ft 436 kts 26°
2026-04-23 11:45 44.15129 -1.56090 34089 ft 436 kts 26°
2026-04-23 11:45 44.20381 -1.51866 34088 ft 436 kts 26°
2026-04-23 11:46 44.25631 -1.47636 34103 ft 436 kts 26°
2026-04-23 11:46 44.30877 -1.43400 34101 ft 436 kts 26°
2026-04-23 11:47 44.36119 -1.39157 34105 ft 435 kts 26°
2026-04-23 11:47 44.41353 -1.34913 34102 ft 435 kts 26°
2026-04-23 11:48 44.46584 -1.30663 34101 ft 435 kts 26°
2026-04-23 11:48 44.51823 -1.26397 34098 ft 435 kts 26°
2026-04-23 11:49 44.57053 -1.22129 34098 ft 435 kts 26°
2026-04-23 11:49 44.62271 -1.17862 34079 ft 434 kts 26°
2026-04-23 11:50 44.67500 -1.13577 34085 ft 434 kts 26°
2026-04-23 11:50 44.72688 -1.09318 34081 ft 434 kts 26°
2026-04-23 11:51 44.77908 -1.05021 34091 ft 434 kts 26°
2026-04-23 11:51 44.83111 -1.00730 34090 ft 434 kts 26°
2026-04-23 11:52 44.88318 -0.96428 34101 ft 434 kts 26°
2026-04-23 11:52 44.93521 -0.92119 34102 ft 434 kts 26°
2026-04-23 11:53 44.98720 -0.87804 34101 ft 433 kts 26°
2026-04-23 11:53 45.03920 -0.83480 34099 ft 433 kts 26°
2026-04-23 11:54 45.09112 -0.79153 34109 ft 433 kts 26°
2026-04-23 11:54 45.14302 -0.74818 34111 ft 433 kts 27°
2026-04-23 11:55 45.19488 -0.70478 34110 ft 433 kts 27°
2026-04-23 11:55 45.24673 -0.66128 34125 ft 433 kts 27°
2026-04-23 11:56 45.29853 -0.61773 34130 ft 433 kts 27°
2026-04-23 11:56 45.35026 -0.57416 34134 ft 432 kts 27°
2026-04-23 11:57 45.40204 -0.53045 34143 ft 433 kts 27°
2026-04-23 11:57 45.45351 -0.48691 34146 ft 432 kts 27°
2026-04-23 11:58 45.50525 -0.44305 34147 ft 432 kts 27°
2026-04-23 11:58 45.55689 -0.39920 34155 ft 432 kts 27°
2026-04-23 11:59 45.60862 -0.35517 34157 ft 432 kts 27°
2026-04-23 11:59 45.66018 -0.31072 34154 ft 433 kts 29°
2026-04-23 12:00 45.71081 -0.26392 34155 ft 434 kts 29°
2026-04-23 12:00 45.76153 -0.21729 34156 ft 433 kts 29°
2026-04-23 12:01 45.81215 -0.17070 34156 ft 433 kts 29°
2026-04-23 12:01 45.86282 -0.12397 34155 ft 433 kts 29°
2026-04-23 12:02 45.91342 -0.07719 34156 ft 432 kts 29°
2026-04-23 12:02 45.96368 -0.03063 34157 ft 432 kts 29°
2026-04-23 12:03 46.01426 0.01634 34157 ft 432 kts 29°
2026-04-23 12:03 46.06449 0.06307 34171 ft 424 kts 27°
2026-04-23 12:04 46.11360 0.10888 34167 ft 419 kts 27°
2026-04-23 12:04 46.16247 0.15455 34163 ft 419 kts 27°
2026-04-23 12:05 46.21135 0.20033 34169 ft 418 kts 27°
2026-04-23 12:05 46.26008 0.24606 34173 ft 418 kts 27°
2026-04-23 12:06 46.30882 0.29191 34183 ft 418 kts 27°
2026-04-23 12:06 46.38183 0.36078 34183 ft 417 kts 27°
2026-04-23 12:07 46.43005 0.40637 34183 ft 417 kts 27°
2026-04-23 12:07 46.47854 0.45232 34182 ft 416 kts 27°
2026-04-23 12:08 46.52701 0.49834 34181 ft 416 kts 28°
2026-04-23 12:08 46.57806 0.53467 34190 ft 404 kts
2026-04-23 12:09 46.62367 0.55066 34187 ft 406 kts
2026-04-23 12:09 46.67866 0.56938 34188 ft 406 kts
2026-04-23 12:10 46.73379 0.58765 34193 ft 406 kts
2026-04-23 12:10 46.78891 0.60587 34191 ft 406 kts
2026-04-23 12:11 46.84399 0.62412 34201 ft 406 kts
2026-04-23 12:11 46.89912 0.64240 34206 ft 406 kts
2026-04-23 12:12 46.95422 0.66074 34222 ft 406 kts
2026-04-23 12:12 47.00929 0.67909 34226 ft 406 kts
2026-04-23 12:13 47.06458 0.69342 34218 ft 400 kts 360°
2026-04-23 12:13 47.12035 0.69924 34228 ft 403 kts
2026-04-23 12:14 47.17621 0.70511 34226 ft 402 kts
2026-04-23 12:14 47.23167 0.71090 34232 ft 402 kts
2026-04-23 12:15 47.28750 0.71674 34238 ft 402 kts
2026-04-23 12:15 47.34341 0.72260 34244 ft 402 kts
2026-04-23 12:16 47.39918 0.72846 34242 ft 402 kts
2026-04-23 12:16 47.45509 0.73435 34238 ft 403 kts
2026-04-23 12:17 47.51048 0.74624 34242 ft 407 kts 16°
2026-04-23 12:17 47.56433 0.77261 34243 ft 408 kts 14°
2026-04-23 12:18 47.61827 0.79892 34242 ft 408 kts 15°
2026-04-23 12:18 47.67215 0.82547 34241 ft 408 kts 15°
2026-04-23 12:19 47.72581 0.85199 34248 ft 409 kts 15°
2026-04-23 12:19 47.77977 0.87871 34246 ft 409 kts 15°
2026-04-23 12:20 47.83380 0.90556 34246 ft 410 kts 15°
2026-04-23 12:20 47.88784 0.93282 34246 ft 410 kts 15°
2026-04-23 12:21 47.94197 0.96017 34254 ft 411 kts 16°
2026-04-23 12:21 47.99611 0.98757 34259 ft 411 kts 16°
2026-04-23 12:22 48.05047 1.01517 34260 ft 415 kts 18°
2026-04-23 12:22 48.10540 1.04309 34264 ft 418 kts 18°
2026-04-23 12:23 48.16050 1.07117 34273 ft 418 kts 18°
2026-04-23 12:23 48.21563 1.09930 34275 ft 419 kts 18°
2026-04-23 12:24 48.27091 1.12744 34276 ft 420 kts 18°
2026-04-23 12:24 48.32594 1.15553 34278 ft 420 kts 18°
2026-04-23 12:25 48.38142 1.18391 34287 ft 421 kts 18°
2026-04-23 12:25 48.43691 1.21236 34290 ft 422 kts 19°
2026-04-23 12:26 48.49249 1.24093 34288 ft 422 kts 19°
2026-04-23 12:26 48.54822 1.26955 34300 ft 423 kts 19°
2026-04-23 12:27 48.60406 1.29760 34301 ft 424 kts 19°
2026-04-23 12:27 48.66004 1.32583 34303 ft 424 kts 19°
2026-04-23 12:28 48.71609 1.35418 34307 ft 425 kts 19°
2026-04-23 12:28 48.77219 1.38261 34317 ft 426 kts 19°
2026-04-23 12:29 48.82803 1.41099 34326 ft 426 kts 19°
2026-04-23 12:29 48.88432 1.43965 34325 ft 427 kts 20°
2026-04-23 12:30 48.94076 1.46846 34323 ft 428 kts 20°
2026-04-23 12:30 48.99828 1.49143 34325 ft 430 kts
2026-04-23 12:31 49.05769 1.50527 34320 ft 433 kts 11°
2026-04-23 12:31 49.11723 1.51923 34318 ft 434 kts 11°
2026-04-23 12:32 49.17706 1.53324 34327 ft 436 kts 11°
2026-04-23 12:32 49.23692 1.54846 34325 ft 435 kts 18°
2026-04-23 12:33 49.26427 1.56668 34337 ft 427 kts 36°
2026-04-23 12:33 49.28741 1.59482 34344 ft 425 kts 44°
2026-04-23 12:33 49.33125 1.65579 34338 ft 426 kts 46°
2026-04-23 12:34 49.37437 1.71807 34342 ft 426 kts 47°
2026-04-23 12:34 49.41722 1.78083 34354 ft 426 kts 48°
2026-04-23 12:35 49.45979 1.84340 34357 ft 426 kts 48°
2026-04-23 12:35 49.50254 1.90640 34367 ft 426 kts 49°
2026-04-23 12:36 49.54529 1.96961 34376 ft 426 kts 49°
2026-04-23 12:36 49.58790 2.03275 34374 ft 426 kts 50°
2026-04-23 12:37 49.63063 2.09624 34371 ft 426 kts 50°
2026-04-23 12:37 49.67319 2.15964 34370 ft 425 kts 50°
2026-04-23 12:38 49.71571 2.22314 34354 ft 418 kts 50°
2026-04-23 12:38 49.73628 2.25391 34229 ft 406 kts 51°
2026-04-23 12:38 49.75645 2.28414 33793 ft 403 kts 51°
2026-04-23 12:39 49.77655 2.31429 33267 ft 402 kts 51°
2026-04-23 12:39 49.79653 2.34430 32785 ft 400 kts 51°
2026-04-23 12:39 49.81643 2.37422 32325 ft 397 kts 51°
2026-04-23 12:39 49.83596 2.40363 31876 ft 395 kts 51°
2026-04-23 12:40 49.85560 2.43322 31431 ft 393 kts 51°
2026-04-23 12:40 49.87507 2.46260 30980 ft 390 kts 51°
2026-04-23 12:40 49.89442 2.49185 30545 ft 387 kts 51°
2026-04-23 12:40 49.91370 2.52100 30108 ft 385 kts 51°
2026-04-23 12:41 49.93277 2.54987 29691 ft 382 kts 51°
2026-04-23 12:41 49.95168 2.57853 29261 ft 379 kts 51°
2026-04-23 12:41 49.97054 2.60719 28764 ft 379 kts 51°
2026-04-23 12:41 49.98929 2.63571 28383 ft 376 kts 50°
2026-04-23 12:42 50.00789 2.66401 27983 ft 372 kts 50°
2026-04-23 12:42 50.02630 2.69208 27588 ft 370 kts 50°
2026-04-23 12:42 50.04462 2.72002 27177 ft 368 kts 50°
2026-04-23 12:42 50.06284 2.74784 26776 ft 366 kts 50°
2026-04-23 12:43 50.08098 2.77557 26377 ft 364 kts 50°
2026-04-23 12:43 50.09895 2.80307 25987 ft 362 kts 49°
2026-04-23 12:43 50.11684 2.83050 25596 ft 360 kts 49°
2026-04-23 12:43 50.13460 2.85774 25207 ft 358 kts 49°
2026-04-23 12:44 50.15229 2.88490 24824 ft 356 kts 49°
2026-04-23 12:44 50.16989 2.91196 24441 ft 354 kts 49°
2026-04-23 12:44 50.18737 2.93885 24063 ft 352 kts 48°
2026-04-23 12:44 50.20454 2.96590 23711 ft 348 kts 53°
2026-04-23 12:45 50.21756 2.99671 23568 ft 333 kts 65°
2026-04-23 12:45 50.22876 3.02773 23399 ft 326 kts 63°
2026-04-23 12:45 50.24008 3.05822 23086 ft 323 kts 63°
2026-04-23 12:45 50.25136 3.08840 22763 ft 320 kts 63°
2026-04-23 12:46 50.26260 3.11836 22425 ft 318 kts 63°
2026-04-23 12:46 50.27374 3.14803 22086 ft 316 kts 62°
2026-04-23 12:46 50.28485 3.17763 21757 ft 315 kts 62°
2026-04-23 12:46 50.29588 3.20705 21415 ft 313 kts 62°
2026-04-23 12:47 50.30686 3.23633 21101 ft 311 kts 62°
2026-04-23 12:47 50.31762 3.26508 20782 ft 309 kts 62°
2026-04-23 12:47 50.32845 3.29403 20467 ft 308 kts 62°
2026-04-23 12:47 50.33928 3.32305 20133 ft 312 kts 62°
2026-04-23 12:48 50.35029 3.35253 19806 ft 316 kts 62°
2026-04-23 12:48 50.36140 3.38235 19485 ft 316 kts 62°
2026-04-23 12:48 50.37244 3.41202 19158 ft 314 kts 62°
2026-04-23 12:48 50.38340 3.44149 18847 ft 312 kts 62°
2026-04-23 12:49 50.39429 3.47082 18521 ft 310 kts 62°
2026-04-23 12:49 50.40509 3.49994 18196 ft 308 kts 62°
2026-04-23 12:49 50.41580 3.52885 17882 ft 305 kts 62°
2026-04-23 12:49 50.42641 3.55753 17568 ft 303 kts 62°
2026-04-23 12:50 50.43694 3.58599 17259 ft 300 kts 61°
2026-04-23 12:50 50.44737 3.61424 16940 ft 298 kts 61°
2026-04-23 12:50 50.45769 3.64221 16649 ft 295 kts 61°
2026-04-23 12:50 50.46793 3.66999 16349 ft 293 kts 61°
2026-04-23 12:51 50.47810 3.69764 16045 ft 291 kts 61°
2026-04-23 12:51 50.48813 3.72492 15754 ft 288 kts 61°
2026-04-23 12:51 50.49808 3.75201 15463 ft 285 kts 61°
2026-04-23 12:51 50.50794 3.77887 15171 ft 282 kts 61°
2026-04-23 12:52 50.51773 3.80555 14882 ft 283 kts 60°
2026-04-23 12:52 50.52762 3.83256 14589 ft 288 kts 60°
2026-04-23 12:52 50.53766 3.85999 14297 ft 290 kts 60°
2026-04-23 12:52 50.54771 3.88752 14002 ft 291 kts 60°
2026-04-23 12:53 50.55777 3.91510 13695 ft 290 kts 60°
2026-04-23 12:53 50.56782 3.94265 13401 ft 289 kts 60°
2026-04-23 12:53 50.57766 3.96967 13106 ft 288 kts 60°
2026-04-23 12:53 50.58757 3.99690 12811 ft 285 kts 60°
2026-04-23 12:54 50.59736 4.02386 12542 ft 283 kts 60°
2026-04-23 12:54 50.60723 4.05103 12232 ft 281 kts 60°
2026-04-23 12:54 50.61675 4.07727 11956 ft 279 kts 60°
2026-04-23 12:54 50.62631 4.10365 11664 ft 276 kts 60°
2026-04-23 12:55 50.63577 4.12982 11392 ft 274 kts 60°
2026-04-23 12:55 50.64515 4.15576 11121 ft 271 kts 60°
2026-04-23 12:55 50.65445 4.18151 10821 ft 270 kts 60°
2026-04-23 12:55 50.66371 4.20714 10538 ft 267 kts 60°
2026-04-23 12:56 50.67274 4.23240 10305 ft 263 kts 62°
2026-04-23 12:56 50.67763 4.26000 9996 ft 264 kts 87°
2026-04-23 12:56 50.67421 4.28832 9719 ft 266 kts 112°
2026-04-23 12:56 50.66343 4.31187 9447 ft 267 kts 136°
2026-04-23 12:57 50.64798 4.32794 9195 ft 266 kts 148°
2026-04-23 12:57 50.63180 4.34222 8903 ft 266 kts 149°
2026-04-23 12:57 50.61565 4.35623 8624 ft 265 kts 149°
2026-04-23 12:57 50.59882 4.36812 8186 ft 270 kts 167°
2026-04-23 12:58 50.58017 4.36623 7638 ft 274 kts 198°
2026-04-23 12:58 50.56875 4.35784 7299 ft 274 kts 212°
2026-04-23 12:58 50.55454 4.33792 6756 ft 277 kts 227°
2026-04-23 12:58 50.54104 4.31634 6213 ft 276 kts 224°
2026-04-23 12:59 50.52747 4.29516 5722 ft 273 kts 224°
2026-04-23 12:59 50.51414 4.27448 5453 ft 265 kts 224°
2026-04-23 12:59 50.50112 4.25443 5099 ft 259 kts 224°
2026-04-23 12:59 50.48842 4.23492 4773 ft 252 kts 224°
2026-04-23 13:00 50.47616 4.21607 4569 ft 244 kts 224°
2026-04-23 13:00 50.46404 4.19757 4421 ft 242 kts 224°